{"data":{"norad_id":63040,"epoch":"2026-05-25T01:23:48.136128Z","epoch_age_seconds":60156,"freshness":"FRESH","line1":"1 63040U 25034M   26145.05819602  .00013192  00000+0  43589-3 0  9993","line2":"2 63040  53.1583 263.0867 0000892  67.6255 292.4841 15.31716861 70783","mean_motion":15.31716861,"eccentricity":8.92e-5,"inclination_deg":53.1583,"raan_deg":263.0867,"arg_perigee_deg":67.6255,"mean_anomaly_deg":292.4841,"bstar":0.00043589,"rev_number":7078,"period_min":94.01215307246,"perigee_km":470.07881857842,"apogee_km":471.30064926775,"semimajor_km":6848.8267339231,"source":"CELESTRAK","updated_at":"2026-05-25T13:38:19.867625Z"}}